GW4285 Weather Reports


Display with metric or nautical units.
time (UTC)temp
F
wind
direction
speed
MPH
gust
MPH
rain 1hr
in
rain 24hr
in
rain mn
in
humidity
%
barometer
mb
20260505041723 51 234 0.0 0.0 0.07 0.37 0.37 99 1015.4
20260505041220 51 298 0.0 0.0 0.00 0.36 0.36 99 1015.8
20260505040718 51 298 0.0 0.0 0.05 0.36 0.36 99 1015.9
20260505040215 51 295 0.0 0.0 0.05 0.36 0.36 99 1015.9
20260505035712 51 298 0.0 0.0 0.00 0.35 0.35 99 1015.8
20260505035208 51 299 0.0 0.0 0.00 0.35 0.35 99 1015.7
20260505034705 51 320 0.0 0.0 0.07 0.35 0.35 99 1015.7
20260505034202 51 240 0.0 0.0 0.07 0.35 0.35 99 1015.4
20260505033657 51 241 0.0 0.0 0.00 0.34 0.34 99 1015.0
20260505033156 51 340 0.0 1.0 0.00 0.34 0.34 99 1014.9
20260505032654 51 224 0.0 0.0 0.05 0.34 0.34 99 1014.6
20260505032149 51 244 0.0 0.0 0.05 0.34 0.34 99 1014.5
20260505031647 51 253 0.0 0.0 0.07 0.33 0.33 99 1014.2
20260505031143 51 245 0.0 0.0 0.07 0.33 0.33 99 1014.4
20260505030640 51 253 0.0 0.0 0.00 0.32 0.32 99 1014.6
20260505030136 52 246 0.0 0.0 0.05 0.32 0.32 99 1014.6
20260505025632 52 250 0.0 0.0 0.05 0.32 0.32 99 1014.7
20260505025131 52 258 0.0 0.0 0.07 0.31 0.31 99 1014.8
20260505024628 52 259 0.0 0.0 0.12 0.30 0.30 99 1014.9
20260505024125 52 258 0.0 0.0 0.12 0.30 0.30 99 1015.1
20260505023622 52 256 0.0 1.0 0.07 0.28 0.28 99 1014.9
20260505023120 52 246 0.0 0.0 0.07 0.28 0.28 99 1015.0
20260505022617 52 242 0.0 0.0 0.05 0.27 0.27 99 1015.0
20260505022114 52 241 0.0 0.0 0.05 0.27 0.27 99 1015.2
20260505021610 52 258 0.0 0.0 0.07 0.26 0.26 99 1015.1
20260505021107 52 242 0.0 0.0 0.00 0.25 0.25 99 1015.2
20260505020603 52 246 0.0 0.0 0.05 0.25 0.25 99 1015.4
20260505020059 52 246 0.0 0.0 0.07 0.24 0.24 99 1015.4
20260505015556 52 246 0.0 0.0 0.07 0.24 0.24 99 1015.2
20260505015053 52 251 0.0 0.0 0.00 0.23 0.23 99 1015.2
20260505014550 52 250 0.0 0.0 0.00 0.23 0.23 99 1015.4
20260505014047 52 250 0.0 0.0 0.05 0.23 0.23 99 1015.3
20260505013544 52 254 0.0 0.0 0.17 0.23 0.23 99 1015.4
20260505013041 52 240 0.0 0.0 0.12 0.22 0.22 99 1015.4
20260505012539 52 225 0.0 0.0 0.07 0.20 0.20 99 1015.5
20260505012036 52 246 0.0 0.0 0.12 0.20 0.20 99 1015.6
20260505011536 52 255 0.0 0.0 0.05 0.19 0.19 99 1015.7
20260505011034 52 253 0.0 0.0 0.07 0.18 0.18 99 1015.7
20260505010529 52 257 0.0 1.0 0.12 0.18 0.18 99 1015.7
20260505010026 53 245 0.0 0.0 0.05 0.17 0.17 99 1015.6
20260505005522 53 259 0.0 0.0 0.07 0.16 0.16 99 1015.7
20260505005020 53 246 0.0 0.0 0.07 0.16 0.16 99 1015.7
20260505004517 53 254 0.0 0.0 0.07 0.15 0.15 99 1015.5
20260505004014 53 262 0.0 0.0 0.12 0.15 0.15 99 1015.5
20260505003511 53 264 0.0 1.0 0.12 0.14 0.14 99 1015.4
20260505003008 53 258 0.0 0.0 0.07 0.13 0.13 99 1015.6
20260505002503 53 242 0.0 0.0 0.05 0.12 0.12 98 1015.4
20260505002002 53 246 0.0 0.0 0.05 0.12 0.12 98 1015.4
20260505001459 53 242 0.0 0.0 0.07 0.11 0.11 98 1015.5
20260505000956 53 253 0.0 0.0 0.12 0.11 0.11 98 1015.5
20260505000454 53 244 0.0 0.0 0.05 0.10 0.10 98 1015.5
20260504235950 53 257 0.0 0.0 0.07 0.09 0.09 98 1015.6
20260504235448 53 255 0.0 0.0 0.07 0.09 0.09 97 1015.5
20260504234944 53 262 0.0 1.0 0.05 0.08 0.08 97 1015.4
20260504234441 53 254 0.0 3.0 0.05 0.08 0.08 96 1015.6
20260504233938 53 244 0.0 5.0 0.00 0.07 0.07 96 1015.4
20260504233433 53 272 2.0 3.0 0.07 0.07 0.07 96 1015.6
20260504232931 53 244 3.0 4.0 0.07 0.07 0.07 96 1015.4
20260504232428 53 257 2.0 4.0 0.00 0.06 0.06 96 1015.3
20260504231925 53 262 3.0 4.0 0.12 0.06 0.06 95 1015.2
20260504231421 54 253 4.0 5.0 0.12 0.05 0.05 95 1015.4
20260504230917 54 255 0.0 0.0 0.05 0.04 0.04 96 1015.4
20260504230415 54 265 0.0 1.0 0.07 0.03 0.03 94 1015.5
20260504225913 54 261 0.0 3.0 0.07 0.03 0.03 94 1015.4
20260504225410 55 260 0.0 1.0 0.00 0.02 0.02 94 1015.7
20260504224907 55 264 2.0 3.0 0.07 0.02 0.02 94 1015.5
20260504224403 55 273 0.0 4.0 0.12 0.02 0.02 93 1015.4
20260504223901 55 254 0.0 3.0 0.05 0.01 0.01 92 1015.4
20260504223356 56 237 5.0 7.0 0.00 0.00 0.00 89 1015.5
20260504222852 56 256 0.0 4.0 0.00 0.00 0.00 89 1015.4
20260504222349 56 259 0.0 4.0 0.00 0.00 0.00 89 1015.5
20260504221848 57 259 3.0 4.0 0.00 0.00 0.00 87 1015.7
20260504221344 57 245 3.0 10.0 0.00 0.00 0.00 87 1015.7
20260504220841 57 259 3.0 5.0 0.00 0.00 0.00 86 1015.5
20260504220338 57 261 5.0 10.0 0.00 0.00 0.00 84 1015.4
20260504215835 58 239 5.0 7.0 0.00 0.00 0.00 82 1015.3
20260504215331 59 279 7.0 10.0 0.00 0.00 0.00 80 1015.4
20260504214828 59 245 4.0 7.0 0.00 0.00 0.00 80 1015.2
20260504214325 59 249 3.0 4.0 0.00 0.00 0.00 79 1015.2
20260504213821 59 260 5.0 5.0 0.00 0.00 0.00 77 1015.3
20260504213317 59 259 5.0 8.0 0.00 0.00 0.00 78 1015.2
20260504212815 59 251 4.0 8.0 0.00 0.00 0.00 76 1015.4
20260504212311 59 244 4.0 10.0 0.00 0.00 0.00 76 1015.3
20260504211809 60 245 3.0 7.0 0.00 0.00 0.00 75 1015.5
20260504211304 60 247 4.0 10.0 0.00 0.00 0.00 75 1015.5
20260504210802 60 232 3.0 5.0 0.00 0.00 0.00 73 1015.5
20260504210259 61 247 5.0 10.0 0.00 0.00 0.00 74 1015.4
20260504205756 62 248 1.0 5.0 0.00 0.00 0.00 73 1015.5
20260504205254 61 255 0.0 4.0 0.00 0.00 0.00 75 1015.4
20260504204752 61 252 3.0 5.0 0.00 0.00 0.00 73 1015.4
20260504204250 61 263 5.0 8.0 0.00 0.00 0.00 73 1015.3
20260504203749 62 248 4.0 5.0 0.00 0.00 0.00 73 1015.3
20260504203246 61 232 5.0 10.0 0.00 0.00 0.00 72 1015.3
20260504202747 60 262 4.0 7.0 0.00 0.00 0.00 71 1015.3
20260504202244 60 244 4.0 5.0 0.00 0.00 0.00 75 1015.4
20260504201741 60 262 1.0 8.0 0.00 0.00 0.00 75 1015.3
20260504201238 60 254 4.0 12.0 0.00 0.00 0.00 75 1015.3
20260504200736 60 259 5.0 11.0 0.00 0.00 0.00 76 1015.2
20260504200231 61 241 2.0 4.0 0.00 0.00 0.00 74 1015.3
20260504195728 61 255 4.0 7.0 0.00 0.00 0.00 73 1015.3
20260504195224 61 256 5.0 7.0 0.00 0.00 0.00 74 1015.3
20260504194722 61 233 4.0 8.0 0.00 0.00 0.00 72 1015.3
20260504194217 61 255 3.0 5.0 0.00 0.00 0.00 69 1015.3
20260504193714 61 257 2.0 4.0 0.00 0.00 0.00 70 1015.5
20260504193212 61 248 0.0 1.0 0.00 0.00 0.00 70 1015.2
20260504192710 61 237 0.0 0.0 0.00 0.00 0.00 69 1015.4
20260504192208 61 193 1.0 3.0 0.00 0.00 0.00 69 1015.3
20260504191706 60 239 0.0 3.0 0.00 0.00 0.00 71 1015.3
20260504191202 61 257 2.0 4.0 0.00 0.00 0.00 70 1015.3
20260504190658 60 253 4.0 5.0 0.00 0.00 0.00 69 1015.3
20260504190154 62 250 2.0 3.0 0.00 0.00 0.00 67 1015.5
20260504185651 64 233 1.0 4.0 0.00 0.00 0.00 64 1015.4
20260504185148 64 259 0.0 1.0 0.00 0.00 0.00 64 1015.4
20260504184644 63 240 0.0 3.0 0.00 0.00 0.00 66 1015.4
20260504184139 62 217 2.0 3.0 0.00 0.00 0.00 69 1015.4
20260504183636 62 261 0.0 3.0 0.00 0.00 0.00 71 1015.3
20260504183133 63 252 5.0 7.0 0.00 0.00 0.00 70 1015.3
20260504182631 61 256 1.0 4.0 0.00 0.00 0.00 71 1015.3
20260504182128 63 247 3.0 5.0 0.00 0.00 0.00 70 1015.3
20260504181626 60 235 1.0 4.0 0.00 0.00 0.00 74 1015.4
20260504181123 60 249 2.0 5.0 0.00 0.00 0.00 77 1015.4
20260504180622 60 263 3.0 5.0 0.00 0.00 0.00 73 1015.4
20260504180121 60 243 1.0 3.0 0.00 0.00 0.00 78 1015.4
20260504175617 61 261 4.0 10.0 0.00 0.00 0.00 76 1015.4
20260504175114 59 235 5.0 7.0 0.00 0.00 0.00 77 1015.4
20260504174612 60 260 1.0 4.0 0.00 0.00 0.00 77 1015.4
20260504174108 60 250 1.0 4.0 0.00 0.00 0.00 77 1015.3
20260504173605 59 256 5.0 5.0 0.00 0.00 0.00 78 1015.3
20260504173103 59 259 4.0 5.0 0.00 0.00 0.00 79 1015.4
20260504172559 57 258 0.0 1.0 0.00 0.00 0.00 81 1015.4
20260504172056 57 250 4.0 5.0 0.00 0.00 0.00 82 1015.5
20260504171552 57 235 1.0 5.0 0.00 0.00 0.00 84 1015.3
20260504171050 56 148 0.0 3.0 0.00 0.00 0.00 85 1015.4
20260504170545 56 245 0.0 0.0 0.00 0.00 0.00 88 1015.1
20260504150929 50 306 0.0 0.0 0.00 0.00 0.00 99 1014.8
20260504150426 50 306 0.0 0.0 0.00 0.00 0.00 99 1014.9
20260504140852 48 306 0.0 0.0 0.00 0.00 0.00 99 1014.8
20260504140349 48 307 0.0 0.0 0.00 0.00 0.00 99 1014.8
20260504130817 48 308 0.0 0.0 0.00 0.00 0.00 99 1014.3
20260504130314 48 308 0.0 0.0 0.00 0.00 0.00 99 1014.3
20260504120237 48 307 0.0 0.0 0.00 0.00 0.00 99 1014.3
20260504110704 48 302 0.0 0.0 0.00 0.00 0.00 99 1014.2
20260504110201 48 302 0.0 0.0 0.00 0.00 0.00 99 1014.1
20260504100125 49 294 0.0 0.0 0.00 0.00 0.00 99 1014.3
20260504081518 50 282 0.0 0.0 0.00 0.00 0.00 98 1014.7
20260504081013 50 282 0.0 0.0 0.00 0.00 0.00 98 1014.6
20260504080510 50 282 0.0 0.0 0.00 0.00 0.00 98 1014.7
20260504050328 51 246 0.0 0.0 0.00 0.00 0.00 96 1014.6
20260504045825 52 246 0.0 0.0 0.00 0.00 0.00 96 1014.4
20260504045320 52 246 0.0 0.0 0.00 0.00 0.00 96 1014.4
20260504044817 52 256 0.0 0.0 0.00 0.00 0.00 96 1014.4